カタログに戻る

STARLINK-38067

運用中通信SSO
NORAD 69747·PAYLOAD·🇺🇸 United States

打ち上げ Jul 2, 2026 から Vandenberg Space Force Base

Loading…

次のパス (今後24時間)

TLE

最新Source: CelesTrak SupGP

元期: Sep 15, 2026, 04:27 UTC

1 69747C 26150J   26258.18590278 -.00054440  00000+0 -16901-2 0  2585
2 69747  97.2848  97.1732 0001785  91.0880 162.4558 15.33462830    16

AllMySatでSTARLINK-38067をリアルタイム追跡

Download on the App Store